This is the latest recevied weather packets stored in our database for station/object KD8BMB. If no packets are shown the sender has not sent any weather packets the latest 10 day(s).
| Time | Temp. | Humidity | Pressure | Rain* | Wind** | Luminosity | Snow |
|---|---|---|---|---|---|---|---|
| 1777656241 | 7.78° C | 63% | 1014.5 hPa | 0 mm | - | 143 W/m² | - |
| 1777655936 | 7.78° C | 61% | 1014.4 hPa | 0 mm | - | 122 W/m² | - |
| 1777655633 | 8.33° C | 62% | 1014.4 hPa | 0 mm | - | 203 W/m² | - |
| 1777655330 | 7.78° C | 63% | 1014.3 hPa | 0 mm | - | 889 W/m² | - |
| 1777655027 | 7.78° C | 63% | 1014.4 hPa | 0 mm | - | 309 W/m² | - |
| 1777654725 | 8.33° C | 61% | 1014.3 hPa | 0 mm | - | 261 W/m² | - |
| 1777654422 | 7.78° C | 61% | 1014.5 hPa | 0 mm | - | 235 W/m² | - |
| 1777654120 | 7.78° C | 64% | 1014.5 hPa | 0 mm | - | 317 W/m² | - |
| 1777653817 | 7.22° C | 65% | 1014.5 hPa | 0 mm | - | 314 W/m² | - |
| 1777653513 | 7.78° C | 65% | 1014.5 hPa | 0 mm | - | 207 W/m² | - |
| 1777653210 | 7.22° C | 64% | 1014.7 hPa | 0 mm | - | 131 W/m² | - |
| 1777652907 | 7.78° C | 64% | 1014.5 hPa | 0 mm | - | 210 W/m² | - |
| 1777652603 | 7.22° C | 63% | 1014.5 hPa | 0 mm | - | 251 W/m² | - |
| 1777652300 | 7.22° C | 66% | 1014.5 hPa | 0 mm | - | 277 W/m² | - |
| 1777651997 | 8.89° C | 62% | 1014.5 hPa | 0 mm | - | 239 W/m² | - |
| 1777651694 | 8.33° C | 65% | 1014.5 hPa | 0 mm | - | 770 W/m² | - |
| 1777651390 | 7.78° C | 65% | 1014.5 hPa | 0 mm | - | 231 W/m² | - |
| 1777651088 | 7.78° C | 65% | 1014.4 hPa | 0 mm | - | 258 W/m² | - |
| 1777650784 | 8.33° C | 64% | 1014.5 hPa | 0 mm | - | 238 W/m² | - |
| 1777650481 | 7.78° C | 63% | 1014.4 hPa | 0 mm | - | 550 W/m² | - |
| 1777650178 | 7.78° C | 64% | 1014.4 hPa | 0 mm | - | 508 W/m² | - |
| 1777649876 | 8.33° C | 67% | 1014.4 hPa | 0 mm | - | 230 W/m² | - |
| 1777649573 | 7.78° C | 66% | 1014.3 hPa | 0 mm | - | 350 W/m² | - |
| 1777649269 | 8.33° C | 65% | 1014.6 hPa | 0 mm | - | 247 W/m² | - |
| 1777648966 | 7.78° C | 66% | 1014.4 hPa | 0 mm | - | 745 W/m² | - |
* Rain latest hour (hover to see other rain measurements)
** Current wind speed in m/s (hover to see current wind gust speed)